STARLINK-34672 (65894 NORAD) Tracking and Keplerian Element Data

This shows tracking and keplerian element data for the satellite.

Feedback or suggestion? Click here.




ElementValue
Catalog65894
NameSTARLINK-34672
Epoch Orbit1264
Epoch Day353.81637299
Epoch Year2025
RAAN22.4669
Inclination53.1628
Eccentricity0.0001481
Argument of Perigee84.9335
Mean Anonmoly275.1834
Mean Motion15.30205057
Decay Rate0.00021692
L11 65894U 25224N 25353.81637299 .00021692 00000+0 74226-3 0 9993
L22 65894 53.1628 22.4669 0001481 84.9335 275.1834 15.30205057 12645



Live tracking and technical data element details for STARLINK-34672 (NORAD 65894). STARLINK-34672 can be tracked NOW for your location showing map with azimuth and elevation plus other details from your city location.







IsCatalogInMostPopularTable: catalog: 65894, numindb: 8
Update: records affected: 1



GetName: 65894 STARLINK-34672

Hit Count: updated at: Mon, 20 Apr 2026 09:22:06 GMT